Location: Schommer Observatory
(40.5200°N, 74.4500°W)
Time: 21:40:06
(UTC-04:00)

ISS - Pass Details

Date: 10 October 2017
Orbit: 401 x 408 km, 51.6° (Epoch: 20 October)

Event Time Altitude Azimuth Distance (km) Brightness Sun altitude
Rises 19:41:55 0° 312° (NW) 2,327 0.9 -15.4°
Reaches altitude 10° 19:44:13 10° 325° (NW) 1,466 -0.5 -15.9°
Maximum altitude 19:47:04 26° 25° (NNE) 833 -2.5 -16.4°
Enters shadow 19:47:24 26° 37° (NE) 845 -2.5 -16.5°
